Вернуться в каталог

CZ-6A DEB

АктивенPO
NORAD 61102·DEBRIS·🇨🇳 China

Запущен Aug 6, 2024 с Taiyuan Satellite Launch Center

Loading…

Ближайшие Пролёты (ближайшие 24 часа)

TLE

СвежийSource: Space-Track

Эпоха: Sep 14, 2026, 08:16 UTC

1 61102U 24140NU  26257.34507647  .00006554  00000-0  57994-3 0  9996
2 61102  88.7311 229.1149 0123469 159.7822 200.8361 14.90382279110521

Отслеживайте CZ-6A DEB в реальном времени с AllMySat

Download on the App Store